Katherine — WDD5676 — position and weather

sailwx.info

Track history (hours):
 
Tides and Currents Weather Stations Pressure Air Temp Water Temp Dewpoint Dewpoint Depression Visibility Wind Speed Wind Dir Waves Ship Positions

Katherine

Owner: Weeks Marine, Inc., Cranford, NJ. More information available from US FCC via Universal Licensing System and Coast Guard Vessel Documentation Center.

Last reported at 2018-Feb-25 09:30 UTC. Time now 2018-Feb-25 09:44 UTC.
Position N 40°41' W 074°05'.

Length 31 m; draft 4.7 m.

Type: Towing. MMSI: 367161940.

Date/timePositionNaut miles runAvg speedWind from/ knotsBaromVisibWave heightAir tempDewpointWater temp
2018-Feb-25 09:30N 40°41' W 074°05'0 0.0
2018-Feb-25 09:00N 40°41' W 074°05'0 0.0
2018-Feb-25 08:30N 40°41' W 074°05'0 0.0
2018-Feb-25 08:00N 40°41' W 074°05'0 0.0
2018-Feb-25 07:30N 40°41' W 074°05'0 0.0
2018-Feb-25 07:00N 40°41' W 074°05'0 0.0
2018-Feb-25 06:30N 40°41' W 074°05'0 0.0
2018-Feb-25 06:00N 40°41' W 074°05'0 0.0
2018-Feb-25 05:30N 40°41' W 074°05'0 0.0
2018-Feb-25 05:00N 40°41' W 074°05'0 0.0
2018-Feb-25 04:30N 40°41' W 074°05'0 0.0
2018-Feb-25 04:00N 40°41' W 074°05'0 0.0
2018-Feb-25 03:30N 40°41' W 074°05'0 0.0
2018-Feb-25 03:00N 40°41' W 074°05'0 0.0
2018-Feb-25 02:30N 40°41' W 074°05'0 0.0
2018-Feb-25 02:00N 40°41' W 074°05'0 0.0
2018-Feb-25 01:30N 40°41' W 074°05'0 0.0
2018-Feb-25 01:00N 40°41' W 074°05'0 0.0
2018-Feb-25 00:30N 40°41' W 074°05'0 0.0
2018-Feb-25 00:00N 40°41' W 074°05'0 0.0
2018-Feb-24 23:30N 40°41' W 074°05'0 0.0
2018-Feb-24 23:00N 40°41' W 074°05'0 0.0
2018-Feb-24 22:30N 40°41' W 074°05'1 1.5
2018-Feb-24 22:00N 40°40' W 074°04'2 1.4
2018-Feb-24 20:20N 40°39' W 074°07'0 0.0
2018-Feb-24 20:00N 40°39' W 074°07'0 0.0
2018-Feb-24 19:28N 40°39' W 074°07'0 0.0
2018-Feb-24 19:00N 40°39' W 074°07'0 0.0
2018-Feb-24 18:07N 40°39' W 074°07'0 0.0
2018-Feb-24 18:00N 40°39' W 074°07'4 7.8
2018-Feb-24 17:30N 40°38' W 074°12'5 8.8
2018-Feb-24 16:57N 40°34' W 074°13'2 4.6
2018-Feb-24 16:30N 40°32' W 074°15'2 3.1
2018-Feb-24 16:00N 40°33' W 074°14'3 5.9
2018-Feb-24 15:29N 40°36' W 074°12'3 5.9
2018-Feb-24 15:00N 40°39' W 074°10'4 7.6
2018-Feb-24 14:30N 40°39' W 074°06'2 3.7
2018-Feb-24 14:00N 40°41' W 074°04'0 0.0
2018-Feb-24 13:30N 40°41' W 074°04'1 1.3
2018-Feb-24 13:00N 40°40' W 074°04'2 4.1
2018-Feb-24 12:30N 40°39' W 074°06'1 1.1
2018-Feb-24 12:00N 40°39' W 074°05'2 3.2
2018-Feb-24 11:30N 40°41' W 074°05'0 0.0
2018-Feb-24 11:00N 40°41' W 074°05'0 0.0
2018-Feb-24 10:30N 40°41' W 074°05'0 0.0
2018-Feb-24 10:00N 40°41' W 074°05'0 0.0
2018-Feb-24 09:30N 40°41' W 074°05'0 0.0
2018-Feb-24 09:00N 40°41' W 074°05'0 0.0
2018-Feb-24 08:30N 40°41' W 074°05'0 0.0
2018-Feb-24 08:00N 40°41' W 074°05'0 0.0
2018-Feb-24 07:30N 40°41' W 074°05'0 0.0
2018-Feb-24 07:00N 40°41' W 074°05'0 0.0
2018-Feb-24 06:30N 40°41' W 074°05'0 0.0
2018-Feb-24 06:00N 40°41' W 074°05'0 0.0
2018-Feb-24 05:30N 40°41' W 074°05'0 0.0
2018-Feb-24 05:00N 40°41' W 074°05'0 0.0
2018-Feb-24 04:30N 40°41' W 074°05'0 0.0
2018-Feb-24 04:00N 40°41' W 074°05'0 0.0
2018-Feb-24 03:30N 40°41' W 074°05'0 0.0
2018-Feb-24 03:00N 40°41' W 074°05'0 0.0
2018-Feb-24 02:30N 40°41' W 074°05'0 0.0
2018-Feb-24 02:00N 40°41' W 074°05'0 0.0
2018-Feb-24 01:30N 40°41' W 074°05'0 0.0
2018-Feb-24 01:00N 40°41' W 074°05'0 0.0
2018-Feb-24 00:30N 40°41' W 074°05'0 0.0
2018-Feb-24 00:00N 40°41' W 074°05'0 0.0
2018-Feb-23 23:30N 40°41' W 074°05'0 0.0
2018-Feb-23 23:00N 40°41' W 074°05'0 0.0
2018-Feb-23 22:30N 40°41' W 074°05'0 0.0
2018-Feb-23 22:00N 40°41' W 074°05'0 0.0
2018-Feb-23 21:30N 40°41' W 074°05'0 0.0
2018-Feb-23 21:00N 40°41' W 074°05'0 0.0
2018-Feb-23 20:30N 40°41' W 074°05'0 0.0
2018-Feb-23 20:00N 40°41' W 074°05'0 0.0
2018-Feb-23 19:30N 40°41' W 074°05'0 0.0
2018-Feb-23 19:00N 40°41' W 074°05'0 0.0
2018-Feb-23 18:30N 40°41' W 074°05'0 0.0
2018-Feb-23 18:00N 40°41' W 074°05'0 0.0
2018-Feb-23 17:00N 40°41' W 074°05'0 0.5
2018-Feb-23 16:31N 40°41' W 074°04'0 0.5
2018-Feb-23 16:00N 40°41' W 074°05'0 0.1
2018-Feb-23 15:30N 40°41' W 074°05'0 0.0
2018-Feb-23 15:00N 40°41' W 074°05'0 0.0
2018-Feb-23 14:30N 40°41' W 074°05'0 0.0
2018-Feb-23 14:00N 40°41' W 074°05'0 0.0
2018-Feb-23 13:30N 40°41' W 074°05'0 0.0
2018-Feb-23 13:00N 40°41' W 074°05'0 0.0
2018-Feb-23 12:30N 40°41' W 074°05'0 0.0
2018-Feb-23 12:00N 40°41' W 074°05'0 0.0
2018-Feb-23 11:30N 40°41' W 074°05'0 0.0
2018-Feb-23 11:00N 40°41' W 074°05'0 0.0
2018-Feb-23 10:30N 40°41' W 074°05'0 0.0
2018-Feb-23 10:00N 40°41' W 074°05'0 0.0
2018-Feb-23 09:30N 40°41' W 074°05'0 0.0
2018-Feb-23 09:00N 40°41' W 074°05'0 0.0
2018-Feb-23 08:30N 40°41' W 074°05'0 0.0
2018-Feb-23 08:00N 40°41' W 074°05'0 0.0
2018-Feb-23 07:30N 40°41' W 074°05'0 0.0
2018-Feb-23 07:00N 40°41' W 074°05'0 0.0
2018-Feb-23 06:30N 40°41' W 074°05'0 0.0
2018-Feb-23 06:00N 40°41' W 074°05'0 0.0
2018-Feb-23 05:30N 40°41' W 074°05'0 0.0
2018-Feb-23 05:00N 40°41' W 074°05'0 0.0
2018-Feb-23 04:30N 40°41' W 074°05'0 0.0
2018-Feb-23 04:00N 40°41' W 074°05'0 0.0
2018-Feb-23 03:30N 40°41' W 074°05'0 0.0
2018-Feb-23 03:00N 40°41' W 074°05'0 0.0
2018-Feb-23 02:30N 40°41' W 074°05'0 0.0
2018-Feb-23 02:00N 40°41' W 074°05'0 0.0
2018-Feb-23 01:30N 40°41' W 074°05'0 0.0
2018-Feb-23 01:00N 40°41' W 074°05'0 0.0
2018-Feb-23 00:30N 40°41' W 074°05'0 0.0
2018-Feb-23 00:00N 40°41' W 074°05'0 0.0
2018-Feb-22 23:30N 40°41' W 074°05'0 0.0
2018-Feb-22 23:00N 40°41' W 074°05'0 0.0
2018-Feb-22 22:30N 40°41' W 074°05'0 0.0
2018-Feb-22 22:00N 40°41' W 074°05'0 0.0
2018-Feb-22 21:30N 40°41' W 074°05'0 0.0
2018-Feb-22 21:00N 40°41' W 074°05'0 0.0
2018-Feb-22 20:30N 40°41' W 074°05'0 0.0
2018-Feb-22 20:00N 40°41' W 074°05'0 0.0
2018-Feb-22 19:30N 40°41' W 074°05'0 0.0
2018-Feb-22 19:00N 40°41' W 074°05'0 0.0
2018-Feb-22 18:30N 40°41' W 074°05'0 0.0
2018-Feb-22 18:00N 40°41' W 074°05'0 0.0
2018-Feb-22 17:30N 40°41' W 074°05'0 0.0
2018-Feb-22 17:00N 40°41' W 074°05'0 0.0
2018-Feb-22 16:30N 40°41' W 074°05'0 0.0
2018-Feb-22 16:00N 40°41' W 074°05'0 0.0
2018-Feb-22 15:30N 40°41' W 074°05'0 0.0
2018-Feb-22 15:00N 40°41' W 074°05'0 0.0
2018-Feb-22 14:30N 40°41' W 074°05'0 0.0
2018-Feb-22 14:00N 40°41' W 074°05'0 0.0
2018-Feb-22 13:30N 40°41' W 074°05'0 0.0
2018-Feb-22 13:00N 40°41' W 074°05'0 0.0
2018-Feb-22 12:30N 40°41' W 074°05'0 0.0
2018-Feb-22 12:00N 40°41' W 074°05'0 0.0
2018-Feb-22 11:30N 40°41' W 074°05'0 0.0
2018-Feb-22 11:00N 40°41' W 074°05'0 0.0
2018-Feb-22 10:30N 40°41' W 074°05'0 0.0
2018-Feb-22 10:00N 40°41' W 074°05'0 0.0
2018-Feb-22 09:30N 40°41' W 074°05'0 0.0
2018-Feb-22 09:00N 40°41' W 074°05'0 0.0
2018-Feb-22 08:30N 40°41' W 074°05'0 0.0
2018-Feb-22 08:00N 40°41' W 074°05'0 0.0
2018-Feb-22 07:30N 40°41' W 074°05'0 0.0
2018-Feb-22 07:00N 40°41' W 074°05'0 0.0
2018-Feb-22 06:30N 40°41' W 074°05'0 0.0
2018-Feb-22 06:00N 40°41' W 074°05'0 0.0
2018-Feb-22 05:30N 40°41' W 074°05'0 0.0
2018-Feb-22 05:00N 40°41' W 074°05'0 0.0
2018-Feb-22 04:30N 40°41' W 074°05'0 0.0
2018-Feb-22 04:00N 40°41' W 074°05'0 0.0
2018-Feb-22 03:30N 40°41' W 074°05'0 0.0
2018-Feb-22 03:00N 40°41' W 074°05'0 0.0
2018-Feb-22 02:30N 40°41' W 074°05'0 0.0
2018-Feb-22 02:00N 40°41' W 074°05'0 0.0
2018-Feb-22 01:30N 40°41' W 074°05'0 0.0
2018-Feb-22 01:00N 40°41' W 074°05'0 0.0
2018-Feb-22 00:30N 40°41' W 074°05'0 0.0
2018-Feb-22 00:00N 40°41' W 074°05'0 0.0
2018-Feb-21 23:30N 40°41' W 074°05'0 0.0
2018-Feb-21 23:00N 40°41' W 074°05'0 0.0
2018-Feb-21 22:30N 40°41' W 074°05'0 0.0
2018-Feb-21 22:00N 40°41' W 074°05'0 0.0
2018-Feb-21 21:30N 40°41' W 074°05'0 0.0
2018-Feb-21 21:00N 40°41' W 074°05'0 0.0
2018-Feb-21 20:30N 40°41' W 074°05'0 0.0
2018-Feb-21 20:00N 40°41' W 074°05'0 0.0
2018-Feb-21 19:30N 40°41' W 074°05'0 0.0
2018-Feb-21 19:00N 40°41' W 074°05'0 0.0
2018-Feb-21 18:30N 40°41' W 074°05'0 0.0
2018-Feb-21 18:00N 40°41' W 074°05'0 0.0
2018-Feb-21 17:30N 40°41' W 074°05'0 0.0
2018-Feb-21 17:00N 40°41' W 074°05'0 0.0
2018-Feb-21 16:30N 40°41' W 074°05'0 0.0
2018-Feb-21 16:00N 40°41' W 074°05'0 0.0
2018-Feb-21 15:30N 40°41' W 074°05'0 0.0
2018-Feb-21 15:00N 40°41' W 074°05'0 0.0
2018-Feb-21 14:30N 40°41' W 074°05'0 0.0
2018-Feb-21 14:00N 40°41' W 074°05'0 0.0
2018-Feb-21 13:30N 40°41' W 074°05'0 0.0
2018-Feb-21 13:00N 40°41' W 074°05'0 0.0
2018-Feb-21 12:30N 40°41' W 074°05'0 0.0
2018-Feb-21 12:00N 40°41' W 074°05'0 0.0
2018-Feb-21 11:30N 40°41' W 074°05'0 0.0
2018-Feb-21 11:00N 40°41' W 074°05'0 0.0
2018-Feb-21 10:30N 40°41' W 074°05'0 0.0
2018-Feb-21 10:00N 40°41' W 074°05'0 0.0
2018-Feb-21 09:30N 40°41' W 074°05'0 0.0
2018-Feb-21 09:00N 40°41' W 074°05'0 0.0
2018-Feb-21 08:30N 40°41' W 074°05'0 0.0
2018-Feb-21 08:00N 40°41' W 074°05'0 0.0
2018-Feb-21 07:30N 40°41' W 074°05'0 0.0
2018-Feb-21 07:00N 40°41' W 074°05'0 0.0
2018-Feb-21 06:30N 40°41' W 074°05'0 0.0
2018-Feb-21 06:00N 40°41' W 074°05'0 0.0
2018-Feb-21 05:30N 40°41' W 074°05'0 0.0
2018-Feb-21 05:00N 40°41' W 074°05'0 0.0
2018-Feb-21 04:30N 40°41' W 074°05'0 0.0
2018-Feb-21 04:00N 40°41' W 074°05'0 0.0
2018-Feb-21 03:30N 40°41' W 074°05'0 0.0
2018-Feb-21 03:00N 40°41' W 074°05'0 0.0
2018-Feb-21 02:30N 40°41' W 074°05'0 0.0
2018-Feb-21 02:00N 40°41' W 074°05'0 0.0
2018-Feb-21 01:30N 40°41' W 074°05'0 0.0
2018-Feb-21 01:00N 40°41' W 074°05'0 0.0
2018-Feb-21 00:30N 40°41' W 074°05'0 0.0
2018-Feb-21 00:00N 40°41' W 074°05'0 0.0
2018-Feb-20 23:30N 40°41' W 074°05'0 0.0
2018-Feb-20 23:00N 40°41' W 074°05'0 0.0
2018-Feb-20 22:30N 40°41' W 074°05'0 0.0
2018-Feb-20 22:00N 40°41' W 074°05'0 0.0
2018-Feb-20 21:30N 40°41' W 074°05'0 0.0
2018-Feb-20 21:00N 40°41' W 074°05'0 0.0
2018-Feb-20 20:30N 40°41' W 074°05'0 0.0
2018-Feb-20 20:00N 40°41' W 074°05'0 0.0
2018-Feb-20 19:30N 40°41' W 074°05'0 0.0
2018-Feb-20 19:00N 40°41' W 074°05'0 0.0
2018-Feb-20 18:30N 40°41' W 074°05'0 0.0
2018-Feb-20 18:00N 40°41' W 074°05'0 0.0
2018-Feb-20 17:30N 40°41' W 074°05'0 0.0
2018-Feb-20 17:00N 40°41' W 074°05'0 0.0
2018-Feb-20 16:30N 40°41' W 074°05'0 0.0
2018-Feb-20 16:00N 40°41' W 074°05'0 0.0
2018-Feb-20 15:30N 40°41' W 074°05'0 0.0
2018-Feb-20 15:00N 40°41' W 074°05'0 0.0
2018-Feb-20 14:30N 40°41' W 074°05'0 0.0
2018-Feb-20 14:00N 40°41' W 074°05'0 0.0
2018-Feb-20 13:30N 40°41' W 074°05'0 0.0
2018-Feb-20 13:00N 40°41' W 074°05'0 0.0
2018-Feb-20 12:30N 40°41' W 074°05'0 0.0
2018-Feb-20 12:00N 40°41' W 074°05'0 0.0
2018-Feb-20 11:30N 40°41' W 074°05'0 0.0
2018-Feb-20 11:00N 40°41' W 074°05'0 0.0
2018-Feb-20 10:30N 40°41' W 074°05'0 0.0
2018-Feb-20 10:00N 40°41' W 074°05'0 0.0
2018-Feb-20 09:30N 40°41' W 074°05'0 0.0
2018-Feb-20 09:00N 40°41' W 074°05'0 0.0
2018-Feb-20 08:30N 40°41' W 074°05'0 0.0
2018-Feb-20 08:01N 40°41' W 074°05'0 0.0
2018-Feb-20 07:30N 40°41' W 074°05'0 0.0
2018-Feb-20 07:00N 40°41' W 074°05'0 0.0
2018-Feb-20 06:30N 40°41' W 074°05'0 0.0
2018-Feb-20 06:00N 40°41' W 074°05'0 0.0
2018-Feb-20 05:30N 40°41' W 074°05'0 0.0
2018-Feb-20 05:00N 40°41' W 074°05'0 0.0
2018-Feb-20 04:30N 40°41' W 074°05'0 0.0
2018-Feb-20 04:00N 40°41' W 074°05'0 0.0
2018-Feb-20 03:30N 40°41' W 074°05'0 0.0
2018-Feb-20 03:00N 40°41' W 074°05'0 0.0
2018-Feb-20 02:30N 40°41' W 074°05'0 0.0
2018-Feb-20 02:00N 40°41' W 074°05'0 0.0
2018-Feb-20 01:00N 40°41' W 074°05'0 0.0
2018-Feb-20 00:30N 40°41' W 074°05'0 0.0
2018-Feb-20 00:00N 40°41' W 074°05'0 0.0
2018-Feb-19 23:30N 40°41' W 074°05'0 0.1
2018-Feb-19 23:00N 40°41' W 074°05'0 0.0
2018-Feb-19 22:30N 40°41' W 074°05'0 0.0
2018-Feb-19 22:00N 40°41' W 074°05'0 0.0
2018-Feb-19 21:29N 40°41' W 074°05'0 0.0
2018-Feb-19 21:00N 40°41' W 074°05'0 0.0
2018-Feb-19 20:30N 40°41' W 074°05'0 0.0
2018-Feb-19 20:00N 40°41' W 074°05'0 0.0
2018-Feb-19 19:30N 40°41' W 074°05'0 0.0
2018-Feb-19 18:59N 40°41' W 074°05'0 0.0
2018-Feb-19 18:30N 40°41' W 074°05'0 0.0
2018-Feb-19 18:00N 40°41' W 074°05'0 0.0
2018-Feb-19 17:30N 40°41' W 074°05'0 0.0
2018-Feb-19 17:00N 40°41' W 074°05'0 0.0
2018-Feb-19 16:30N 40°41' W 074°05'1 2.4
2018-Feb-19 16:00N 40°39' W 074°04'2 4.7
2018-Feb-19 15:30N 40°39' W 074°07'0 0.0
2018-Feb-19 15:00N 40°39' W 074°07'0 0.1
2018-Feb-19 14:19N 40°39' W 074°07'0 0.0
2018-Feb-19 13:59N 40°39' W 074°07'0 0.0
2018-Feb-19 13:30N 40°39' W 074°07'0 0.0
2018-Feb-19 13:00N 40°39' W 074°07'0 0.0
2018-Feb-19 12:29N 40°39' W 074°07'0 0.0
2018-Feb-19 12:00N 40°39' W 074°07'0 0.0
2018-Feb-19 11:29N 40°39' W 074°07'0 0.0
2018-Feb-19 11:00N 40°39' W 074°07'0 0.0
2018-Feb-19 10:30N 40°39' W 074°07'0 0.0
2018-Feb-19 09:59N 40°39' W 074°07'0 0.0
2018-Feb-19 09:30N 40°39' W 074°07'0 0.0
2018-Feb-19 09:00N 40°39' W 074°07'0 0.0
2018-Feb-19 08:30N 40°39' W 074°07'0 0.0
2018-Feb-19 08:00N 40°39' W 074°07'0 0.0
2018-Feb-19 07:28N 40°39' W 074°07'0 0.0
2018-Feb-19 07:00N 40°39' W 074°07'0 0.0
2018-Feb-19 06:30N 40°39' W 074°07'0 0.0
2018-Feb-19 06:00N 40°39' W 074°07'0 0.0
2018-Feb-19 05:30N 40°39' W 074°07'0 0.0
2018-Feb-19 05:00N 40°39' W 074°07'0 0.0
2018-Feb-19 04:30N 40°39' W 074°07'0 0.0
2018-Feb-19 04:00N 40°39' W 074°07'0 0.0
2018-Feb-19 03:29N 40°39' W 074°07'0 0.0
2018-Feb-19 03:00N 40°39' W 074°07'0 0.0
2018-Feb-19 02:26N 40°39' W 074°07'0 0.0
2018-Feb-19 02:00N 40°39' W 074°07'0 0.0
2018-Feb-19 01:30N 40°39' W 074°07'0 0.0
2018-Feb-19 00:58N 40°39' W 074°07'0 0.0
2018-Feb-19 00:29N 40°39' W 074°07'0 0.0
2018-Feb-19 00:00N 40°39' W 074°07'0 0.0
2018-Feb-18 23:30N 40°39' W 074°07'0 0.0
2018-Feb-18 22:58N 40°39' W 074°07'0 0.0
2018-Feb-18 22:30N 40°39' W 074°07'0 0.0
2018-Feb-18 22:00N 40°39' W 074°07'0 0.0
2018-Feb-18 21:30N 40°39' W 074°07'0 0.0
2018-Feb-18 20:59N 40°39' W 074°07'0 0.0
2018-Feb-18 20:29N 40°39' W 074°07'0 0.0
2018-Feb-18 20:00N 40°39' W 074°07'0 0.0
2018-Feb-18 19:30N 40°39' W 074°07'0 0.0
2018-Feb-18 19:00N 40°39' W 074°07'0 0.0
2018-Feb-18 18:30N 40°39' W 074°07'0 0.0
2018-Feb-18 18:00N 40°39' W 074°07'0 0.0
2018-Feb-18 17:30N 40°39' W 074°07'0 0.0
2018-Feb-18 16:59N 40°39' W 074°07'0 0.0
2018-Feb-18 16:30N 40°39' W 074°07'0 0.0
2018-Feb-18 16:00N 40°39' W 074°07'0 0.0
2018-Feb-18 15:28N 40°39' W 074°07'0 0.0
2018-Feb-18 14:59N 40°39' W 074°07'0 0.0
2018-Feb-18 14:30N 40°39' W 074°07'0 0.0
2018-Feb-18 13:59N 40°39' W 074°07'0 0.0
2018-Feb-18 13:28N 40°39' W 074°07'0 0.0
2018-Feb-18 12:53N 40°39' W 074°07'0 0.0
2018-Feb-18 12:30N 40°39' W 074°07'0 0.0
2018-Feb-18 12:00N 40°39' W 074°07'0 0.0
2018-Feb-18 11:30N 40°39' W 074°07'0 0.0
2018-Feb-18 11:00N 40°39' W 074°07'0 0.0
2018-Feb-18 10:29N 40°39' W 074°07'0 0.0
2018-Feb-18 10:00N 40°39' W 074°07'0 0.0
2018-Feb-18 09:29N 40°39' W 074°07'0 0.0
2018-Feb-18 09:00N 40°39' W 074°07'0 0.0
2018-Feb-18 08:30N 40°39' W 074°07'0 0.0
2018-Feb-18 07:54N 40°39' W 074°07'0 0.0
2018-Feb-18 07:24N 40°39' W 074°07'0 0.0
2018-Feb-18 06:55N 40°39' W 074°07'0 0.0
2018-Feb-18 06:29N 40°39' W 074°07'0 0.0
2018-Feb-18 06:00N 40°39' W 074°07'0 0.0
2018-Feb-18 05:29N 40°39' W 074°07'0 0.0
2018-Feb-18 05:00N 40°39' W 074°07'0 0.0
2018-Feb-18 04:28N 40°39' W 074°07'0 0.0
2018-Feb-18 04:00N 40°39' W 074°07'0 0.0
2018-Feb-18 03:30N 40°39' W 074°07'0 0.0
2018-Feb-18 03:00N 40°39' W 074°07'0 0.0
2018-Feb-18 02:28N 40°39' W 074°07'0 0.0
2018-Feb-18 02:00N 40°39' W 074°07'0 0.0
2018-Feb-18 01:29N 40°39' W 074°07'0 0.0
2018-Feb-18 01:00N 40°39' W 074°07'0 0.0
2018-Feb-18 00:30N 40°39' W 074°07'0 0.0
2018-Feb-17 23:58N 40°39' W 074°07'0 0.0
2018-Feb-17 23:29N 40°39' W 074°07'0 0.0
2018-Feb-17 23:00N 40°39' W 074°07'0 0.0
2018-Feb-17 22:30N 40°39' W 074°07'0 0.0
2018-Feb-17 21:59N 40°39' W 074°07'0 0.0
2018-Feb-17 21:30N 40°39' W 074°07'0 0.0
2018-Feb-17 21:00N 40°39' W 074°07'0 0.0
2018-Feb-17 20:30N 40°39' W 074°07'0 0.0
2018-Feb-17 20:00N 40°39' W 074°07'0 0.0
2018-Feb-17 19:29N 40°39' W 074°07'0 0.0
2018-Feb-17 19:00N 40°39' W 074°07'0 0.0
2018-Feb-17 18:30N 40°39' W 074°07'0 0.0
2018-Feb-17 17:59N 40°39' W 074°07'0 0.0
2018-Feb-17 17:28N 40°39' W 074°07'0 0.0
2018-Feb-17 17:00N 40°39' W 074°07'0 0.0
2018-Feb-17 16:29N 40°39' W 074°07'0 0.0
2018-Feb-17 15:59N 40°39' W 074°07'0 0.0
2018-Feb-17 15:30N 40°39' W 074°07'0 0.0
2018-Feb-17 15:00N 40°39' W 074°07'0 0.0
2018-Feb-17 14:28N 40°39' W 074°07'0 0.0
2018-Feb-17 14:00N 40°39' W 074°07'0 0.0
2018-Feb-17 13:30N 40°39' W 074°07'0 0.0
2018-Feb-17 13:00N 40°39' W 074°07'0 0.0
2018-Feb-17 12:30N 40°39' W 074°07'0 0.0
2018-Feb-17 12:00N 40°39' W 074°07'0 0.0
2018-Feb-17 11:24N 40°39' W 074°07'0 0.0
2018-Feb-17 11:00N 40°39' W 074°07'0 0.0
2018-Feb-17 10:30N 40°39' W 074°07'0 0.0
2018-Feb-17 10:00N 40°39' W 074°07'0 0.0
2018-Feb-17 09:30N 40°39' W 074°07'0 0.0
2018-Feb-17 08:59N 40°39' W 074°07'0 0.0
2018-Feb-17 08:30N 40°39' W 074°07'0 0.0
2018-Feb-17 08:00N 40°39' W 074°07'0 0.0
2018-Feb-17 07:30N 40°39' W 074°07'0 0.0
2018-Feb-17 07:00N 40°39' W 074°07'0 0.0
2018-Feb-17 06:30N 40°39' W 074°07'0 0.0
2018-Feb-17 06:00N 40°39' W 074°07'0 0.0
2018-Feb-17 05:30N 40°39' W 074°07'0 0.0
2018-Feb-17 05:00N 40°39' W 074°07'0 0.0
2018-Feb-17 04:30N 40°39' W 074°07'0 0.0
2018-Feb-17 04:00N 40°39' W 074°07'0 0.0
2018-Feb-17 03:30N 40°39' W 074°07'0 0.0
2018-Feb-17 03:00N 40°39' W 074°07'0 0.0
2018-Feb-17 02:30N 40°39' W 074°07'0 0.0
2018-Feb-17 02:00N 40°39' W 074°07'0 0.0
2018-Feb-17 01:30N 40°39' W 074°07'0 0.0
2018-Feb-17 01:00N 40°39' W 074°07'0 0.0
2018-Feb-17 00:30N 40°39' W 074°07'0 0.0
2018-Feb-17 00:00N 40°39' W 074°07'0 0.0
2018-Feb-16 23:30N 40°39' W 074°07'0 0.0
2018-Feb-16 23:00N 40°39' W 074°07'0 0.0
2018-Feb-16 22:30N 40°39' W 074°07'0 0.0
2018-Feb-16 21:59N 40°39' W 074°07'0 0.0
2018-Feb-16 21:30N 40°39' W 074°07'0 0.0
2018-Feb-16 21:00N 40°39' W 074°07'0 0.0
2018-Feb-16 20:30N 40°39' W 074°07'0 0.0
2018-Feb-16 20:00N 40°39' W 074°07'0 0.0
2018-Feb-16 19:30N 40°39' W 074°07'0 0.0
2018-Feb-16 19:00N 40°39' W 074°07'0 0.0
2018-Feb-16 18:30N 40°39' W 074°07'0 0.0
2018-Feb-16 17:59N 40°39' W 074°07'0 0.0
2018-Feb-16 17:29N 40°39' W 074°07'0 0.0
2018-Feb-16 17:00N 40°39' W 074°07'0 0.0
2018-Feb-16 16:25N 40°39' W 074°07'0 0.0
2018-Feb-16 15:52N 40°39' W 074°07'0 0.0
2018-Feb-16 15:27N 40°39' W 074°07'0 0.0
2018-Feb-16 14:59N 40°39' W 074°07'0 0.0
2018-Feb-16 14:30N 40°39' W 074°07'0 0.0
2018-Feb-16 13:51N 40°39' W 074°07'0 0.0
2018-Feb-16 13:30N 40°39' W 074°07'0 0.0
2018-Feb-16 12:59N 40°39' W 074°07'0 0.0
2018-Feb-16 12:26N 40°39' W 074°07'0 0.0
2018-Feb-16 12:00N 40°39' W 074°07'0 0.0
2018-Feb-16 11:30N 40°39' W 074°07'0 0.0
2018-Feb-16 11:00N 40°39' W 074°07'0 0.0
2018-Feb-16 10:29N 40°39' W 074°07'0 0.0
2018-Feb-16 10:00N 40°39' W 074°07'0 0.0
2018-Feb-16 09:29N 40°39' W 074°07'0 0.0
2018-Feb-16 08:59N 40°39' W 074°07'0 0.0
2018-Feb-16 08:30N 40°39' W 074°07'0 0.0
2018-Feb-16 07:59N 40°39' W 074°07'0 0.0
2018-Feb-16 07:14N 40°39' W 074°07'0 0.0
2018-Feb-16 06:59N 40°39' W 074°07'0 0.0
2018-Feb-16 06:30N 40°39' W 074°07'0 0.0
2018-Feb-16 06:00N 40°39' W 074°07'0 0.0
2018-Feb-16 05:30N 40°39' W 074°07'0 0.0
2018-Feb-16 04:53N 40°39' W 074°07'0 0.0
2018-Feb-16 04:29N 40°39' W 074°07'0 0.0
2018-Feb-16 04:00N 40°39' W 074°07'0 0.0
2018-Feb-16 03:30N 40°39' W 074°07'0 0.0
2018-Feb-16 02:58N 40°39' W 074°07'0 0.0
2018-Feb-16 02:30N 40°39' W 074°07'0 0.0
2018-Feb-16 02:00N 40°39' W 074°07'0 0.0
2018-Feb-16 01:29N 40°39' W 074°07'0 0.0
2018-Feb-16 01:00N 40°39' W 074°07'0 0.0
2018-Feb-16 00:30N 40°39' W 074°07'0 0.0
2018-Feb-16 00:00N 40°39' W 074°07'0 0.0
2018-Feb-15 22:57N 40°39' W 074°07'0 0.0
2018-Feb-15 22:30N 40°39' W 074°07'0 0.0
2018-Feb-15 22:00N 40°39' W 074°07'0 0.0
2018-Feb-15 21:30N 40°39' W 074°07'0 0.0
2018-Feb-15 20:59N 40°39' W 074°07'0 0.0
2018-Feb-15 20:30N 40°39' W 074°07'0 0.0
2018-Feb-15 20:00N 40°39' W 074°07'0 0.0
2018-Feb-15 19:30N 40°39' W 074°07'0 0.0
2018-Feb-15 19:00N 40°39' W 074°07'0 0.0
2018-Feb-15 18:30N 40°39' W 074°07'0 0.0
2018-Feb-15 17:59N 40°39' W 074°07'0 0.0
2018-Feb-15 17:30N 40°39' W 074°07'0 0.0
2018-Feb-15 17:00N 40°39' W 074°07'0 0.0
2018-Feb-15 15:44N 40°39' W 074°07'0 0.0
2018-Feb-15 15:29N 40°39' W 074°07'0 0.0
2018-Feb-15 14:58N 40°39' W 074°07'0 0.0
2018-Feb-15 14:30N 40°39' W 074°07'0 0.0
2018-Feb-15 14:00N 40°39' W 074°07'0 0.0
2018-Feb-15 13:28N 40°39' W 074°07'0 0.0
2018-Feb-15 12:58N 40°39' W 074°07'0 0.0
2018-Feb-15 12:25N 40°39' W 074°07'0 0.0
2018-Feb-15 11:50N 40°39' W 074°07'0 0.0
2018-Feb-15 11:30N 40°39' W 074°07'0 0.0
2018-Feb-15 10:58N 40°39' W 074°07'0 0.0
2018-Feb-15 10:30N 40°39' W 074°07'0 0.0
2018-Feb-15 10:00N 40°39' W 074°07'  
Track history (hours):
 
Tides and Currents Weather Stations Pressure Air Temp Water Temp Dewpoint Dewpoint Depression Visibility Wind Speed Wind Dir Waves Ship Positions

Katherine

Owner: Weeks Marine, Inc., Cranford, NJ. More information available from US FCC via Universal Licensing System and Coast Guard Vessel Documentation Center.

Last reported at 2018-Feb-25 09:30 UTC. Time now 2018-Feb-25 09:44 UTC.
Position N 40°41' W 074°05'.

Length 31 m; draft 4.7 m.

Type: Towing. MMSI: 367161940.

Date/timePositionNaut miles runAvg speedWind from/ knotsBaromVisibWave heightAir tempDewpointWater temp
2018-Feb-25 09:30N 40°41' W 074°05'0 0.0
2018-Feb-25 09:00N 40°41' W 074°05'0 0.0
2018-Feb-25 08:30N 40°41' W 074°05'0 0.0
2018-Feb-25 08:00N 40°41' W 074°05'0 0.0
2018-Feb-25 07:30N 40°41' W 074°05'0 0.0
2018-Feb-25 07:00N 40°41' W 074°05'0 0.0
2018-Feb-25 06:30N 40°41' W 074°05'0 0.0
2018-Feb-25 06:00N 40°41' W 074°05'0 0.0
2018-Feb-25 05:30N 40°41' W 074°05'0 0.0
2018-Feb-25 05:00N 40°41' W 074°05'0 0.0
2018-Feb-25 04:30N 40°41' W 074°05'0 0.0
2018-Feb-25 04:00N 40°41' W 074°05'0 0.0
2018-Feb-25 03:30N 40°41' W 074°05'0 0.0
2018-Feb-25 03:00N 40°41' W 074°05'0 0.0
2018-Feb-25 02:30N 40°41' W 074°05'0 0.0
2018-Feb-25 02:00N 40°41' W 074°05'0 0.0
2018-Feb-25 01:30N 40°41' W 074°05'0 0.0
2018-Feb-25 01:00N 40°41' W 074°05'0 0.0
2018-Feb-25 00:30N 40°41' W 074°05'0 0.0
2018-Feb-25 00:00N 40°41' W 074°05'0 0.0
2018-Feb-24 23:30N 40°41' W 074°05'0 0.0
2018-Feb-24 23:00N 40°41' W 074°05'0 0.0
2018-Feb-24 22:30N 40°41' W 074°05'1 1.5
2018-Feb-24 22:00N 40°40' W 074°04'2 1.4
2018-Feb-24 20:20N 40°39' W 074°07'0 0.0
2018-Feb-24 20:00N 40°39' W 074°07'0 0.0
2018-Feb-24 19:28N 40°39' W 074°07'0 0.0
2018-Feb-24 19:00N 40°39' W 074°07'0 0.0
2018-Feb-24 18:07N 40°39' W 074°07'0 0.0
2018-Feb-24 18:00N 40°39' W 074°07'4 7.8
2018-Feb-24 17:30N 40°38' W 074°12'5 8.8
2018-Feb-24 16:57N 40°34' W 074°13'2 4.6
2018-Feb-24 16:30N 40°32' W 074°15'2 3.1
2018-Feb-24 16:00N 40°33' W 074°14'3 5.9
2018-Feb-24 15:29N 40°36' W 074°12'3 5.9
2018-Feb-24 15:00N 40°39' W 074°10'4 7.6
2018-Feb-24 14:30N 40°39' W 074°06'2 3.7
2018-Feb-24 14:00N 40°41' W 074°04'0 0.0
2018-Feb-24 13:30N 40°41' W 074°04'1 1.3
2018-Feb-24 13:00N 40°40' W 074°04'2 4.1
2018-Feb-24 12:30N 40°39' W 074°06'1 1.1
2018-Feb-24 12:00N 40°39' W 074°05'2 3.2
2018-Feb-24 11:30N 40°41' W 074°05'0 0.0
2018-Feb-24 11:00N 40°41' W 074°05'0 0.0
2018-Feb-24 10:30N 40°41' W 074°05'0 0.0
2018-Feb-24 10:00N 40°41' W 074°05'0 0.0
2018-Feb-24 09:30N 40°41' W 074°05'0 0.0
2018-Feb-24 09:00N 40°41' W 074°05'0 0.0
2018-Feb-24 08:30N 40°41' W 074°05'0 0.0
2018-Feb-24 08:00N 40°41' W 074°05'0 0.0
2018-Feb-24 07:30N 40°41' W 074°05'0 0.0
2018-Feb-24 07:00N 40°41' W 074°05'0 0.0
2018-Feb-24 06:30N 40°41' W 074°05'0 0.0
2018-Feb-24 06:00N 40°41' W 074°05'0 0.0
2018-Feb-24 05:30N 40°41' W 074°05'0 0.0
2018-Feb-24 05:00N 40°41' W 074°05'0 0.0
2018-Feb-24 04:30N 40°41' W 074°05'0 0.0
2018-Feb-24 04:00N 40°41' W 074°05'0 0.0
2018-Feb-24 03:30N 40°41' W 074°05'0 0.0
2018-Feb-24 03:00N 40°41' W 074°05'0 0.0
2018-Feb-24 02:30N 40°41' W 074°05'0 0.0
2018-Feb-24 02:00N 40°41' W 074°05'0 0.0
2018-Feb-24 01:30N 40°41' W 074°05'0 0.0
2018-Feb-24 01:00N 40°41' W 074°05'0 0.0
2018-Feb-24 00:30N 40°41' W 074°05'0 0.0
2018-Feb-24 00:00N 40°41' W 074°05'0 0.0
2018-Feb-23 23:30N 40°41' W 074°05'0 0.0
2018-Feb-23 23:00N 40°41' W 074°05'0 0.0
2018-Feb-23 22:30N 40°41' W 074°05'0 0.0
2018-Feb-23 22:00N 40°41' W 074°05'0 0.0
2018-Feb-23 21:30N 40°41' W 074°05'0 0.0
2018-Feb-23 21:00N 40°41' W 074°05'0 0.0
2018-Feb-23 20:30N 40°41' W 074°05'0 0.0
2018-Feb-23 20:00N 40°41' W 074°05'0 0.0
2018-Feb-23 19:30N 40°41' W 074°05'0 0.0
2018-Feb-23 19:00N 40°41' W 074°05'0 0.0
2018-Feb-23 18:30N 40°41' W 074°05'0 0.0
2018-Feb-23 18:00N 40°41' W 074°05'0 0.0
2018-Feb-23 17:00N 40°41' W 074°05'0 0.5
2018-Feb-23 16:31N 40°41' W 074°04'0 0.5
2018-Feb-23 16:00N 40°41' W 074°05'0 0.1
2018-Feb-23 15:30N 40°41' W 074°05'0 0.0
2018-Feb-23 15:00N 40°41' W 074°05'0 0.0
2018-Feb-23 14:30N 40°41' W 074°05'0 0.0
2018-Feb-23 14:00N 40°41' W 074°05'0 0.0
2018-Feb-23 13:30N 40°41' W 074°05'0 0.0
2018-Feb-23 13:00N 40°41' W 074°05'0 0.0
2018-Feb-23 12:30N 40°41' W 074°05'0 0.0
2018-Feb-23 12:00N 40°41' W 074°05'0 0.0
2018-Feb-23 11:30N 40°41' W 074°05'0 0.0
2018-Feb-23 11:00N 40°41' W 074°05'0 0.0
2018-Feb-23 10:30N 40°41' W 074°05'0 0.0
2018-Feb-23 10:00N 40°41' W 074°05'0 0.0
2018-Feb-23 09:30N 40°41' W 074°05'0 0.0
2018-Feb-23 09:00N 40°41' W 074°05'0 0.0
2018-Feb-23 08:30N 40°41' W 074°05'0 0.0
2018-Feb-23 08:00N 40°41' W 074°05'0 0.0
2018-Feb-23 07:30N 40°41' W 074°05'0 0.0
2018-Feb-23 07:00N 40°41' W 074°05'0 0.0
2018-Feb-23 06:30N 40°41' W 074°05'0 0.0
2018-Feb-23 06:00N 40°41' W 074°05'0 0.0
2018-Feb-23 05:30N 40°41' W 074°05'0 0.0
2018-Feb-23 05:00N 40°41' W 074°05'0 0.0
2018-Feb-23 04:30N 40°41' W 074°05'0 0.0
2018-Feb-23 04:00N 40°41' W 074°05'0 0.0
2018-Feb-23 03:30N 40°41' W 074°05'0 0.0
2018-Feb-23 03:00N 40°41' W 074°05'0 0.0
2018-Feb-23 02:30N 40°41' W 074°05'0 0.0
2018-Feb-23 02:00N 40°41' W 074°05'0 0.0
2018-Feb-23 01:30N 40°41' W 074°05'0 0.0
2018-Feb-23 01:00N 40°41' W 074°05'0 0.0
2018-Feb-23 00:30N 40°41' W 074°05'0 0.0
2018-Feb-23 00:00N 40°41' W 074°05'0 0.0
2018-Feb-22 23:30N 40°41' W 074°05'0 0.0
2018-Feb-22 23:00N 40°41' W 074°05'0 0.0
2018-Feb-22 22:30N 40°41' W 074°05'0 0.0
2018-Feb-22 22:00N 40°41' W 074°05'0 0.0
2018-Feb-22 21:30N 40°41' W 074°05'0 0.0
2018-Feb-22 21:00N 40°41' W 074°05'0 0.0
2018-Feb-22 20:30N 40°41' W 074°05'0 0.0
2018-Feb-22 20:00N 40°41' W 074°05'0 0.0
2018-Feb-22 19:30N 40°41' W 074°05'0 0.0
2018-Feb-22 19:00N 40°41' W 074°05'0 0.0
2018-Feb-22 18:30N 40°41' W 074°05'0 0.0
2018-Feb-22 18:00N 40°41' W 074°05'0 0.0
2018-Feb-22 17:30N 40°41' W 074°05'0 0.0
2018-Feb-22 17:00N 40°41' W 074°05'0 0.0
2018-Feb-22 16:30N 40°41' W 074°05'0 0.0
2018-Feb-22 16:00N 40°41' W 074°05'0 0.0
2018-Feb-22 15:30N 40°41' W 074°05'0 0.0
2018-Feb-22 15:00N 40°41' W 074°05'0 0.0
2018-Feb-22 14:30N 40°41' W 074°05'0 0.0
2018-Feb-22 14:00N 40°41' W 074°05'0 0.0
2018-Feb-22 13:30N 40°41' W 074°05'0 0.0
2018-Feb-22 13:00N 40°41' W 074°05'0 0.0
2018-Feb-22 12:30N 40°41' W 074°05'0 0.0
2018-Feb-22 12:00N 40°41' W 074°05'0 0.0
2018-Feb-22 11:30N 40°41' W 074°05'0 0.0
2018-Feb-22 11:00N 40°41' W 074°05'0 0.0
2018-Feb-22 10:30N 40°41' W 074°05'0 0.0
2018-Feb-22 10:00N 40°41' W 074°05'0 0.0
2018-Feb-22 09:30N 40°41' W 074°05'0 0.0
2018-Feb-22 09:00N 40°41' W 074°05'0 0.0
2018-Feb-22 08:30N 40°41' W 074°05'0 0.0
2018-Feb-22 08:00N 40°41' W 074°05'0 0.0
2018-Feb-22 07:30N 40°41' W 074°05'0 0.0
2018-Feb-22 07:00N 40°41' W 074°05'0 0.0
2018-Feb-22 06:30N 40°41' W 074°05'0 0.0
2018-Feb-22 06:00N 40°41' W 074°05'0 0.0
2018-Feb-22 05:30N 40°41' W 074°05'0 0.0
2018-Feb-22 05:00N 40°41' W 074°05'0 0.0
2018-Feb-22 04:30N 40°41' W 074°05'0 0.0
2018-Feb-22 04:00N 40°41' W 074°05'0 0.0
2018-Feb-22 03:30N 40°41' W 074°05'0 0.0
2018-Feb-22 03:00N 40°41' W 074°05'0 0.0
2018-Feb-22 02:30N 40°41' W 074°05'0 0.0
2018-Feb-22 02:00N 40°41' W 074°05'0 0.0
2018-Feb-22 01:30N 40°41' W 074°05'0 0.0
2018-Feb-22 01:00N 40°41' W 074°05'0 0.0
2018-Feb-22 00:30N 40°41' W 074°05'0 0.0
2018-Feb-22 00:00N 40°41' W 074°05'0 0.0
2018-Feb-21 23:30N 40°41' W 074°05'0 0.0
2018-Feb-21 23:00N 40°41' W 074°05'0 0.0
2018-Feb-21 22:30N 40°41' W 074°05'0 0.0
2018-Feb-21 22:00N 40°41' W 074°05'0 0.0
2018-Feb-21 21:30N 40°41' W 074°05'0 0.0
2018-Feb-21 21:00N 40°41' W 074°05'0 0.0
2018-Feb-21 20:30N 40°41' W 074°05'0 0.0
2018-Feb-21 20:00N 40°41' W 074°05'0 0.0
2018-Feb-21 19:30N 40°41' W 074°05'0 0.0
2018-Feb-21 19:00N 40°41' W 074°05'0 0.0
2018-Feb-21 18:30N 40°41' W 074°05'0 0.0
2018-Feb-21 18:00N 40°41' W 074°05'0 0.0
2018-Feb-21 17:30N 40°41' W 074°05'0 0.0
2018-Feb-21 17:00N 40°41' W 074°05'0 0.0
2018-Feb-21 16:30N 40°41' W 074°05'0 0.0
2018-Feb-21 16:00N 40°41' W 074°05'0 0.0
2018-Feb-21 15:30N 40°41' W 074°05'0 0.0
2018-Feb-21 15:00N 40°41' W 074°05'0 0.0
2018-Feb-21 14:30N 40°41' W 074°05'0 0.0
2018-Feb-21 14:00N 40°41' W 074°05'0 0.0
2018-Feb-21 13:30N 40°41' W 074°05'0 0.0
2018-Feb-21 13:00N 40°41' W 074°05'0 0.0
2018-Feb-21 12:30N 40°41' W 074°05'0 0.0
2018-Feb-21 12:00N 40°41' W 074°05'0 0.0
2018-Feb-21 11:30N 40°41' W 074°05'0 0.0
2018-Feb-21 11:00N 40°41' W 074°05'0 0.0
2018-Feb-21 10:30N 40°41' W 074°05'0 0.0
2018-Feb-21 10:00N 40°41' W 074°05'0 0.0
2018-Feb-21 09:30N 40°41' W 074°05'0 0.0
2018-Feb-21 09:00N 40°41' W 074°05'0 0.0
2018-Feb-21 08:30N 40°41' W 074°05'0 0.0
2018-Feb-21 08:00N 40°41' W 074°05'0 0.0
2018-Feb-21 07:30N 40°41' W 074°05'0 0.0
2018-Feb-21 07:00N 40°41' W 074°05'0 0.0
2018-Feb-21 06:30N 40°41' W 074°05'0 0.0
2018-Feb-21 06:00N 40°41' W 074°05'0 0.0
2018-Feb-21 05:30N 40°41' W 074°05'0 0.0
2018-Feb-21 05:00N 40°41' W 074°05'0 0.0
2018-Feb-21 04:30N 40°41' W 074°05'0 0.0
2018-Feb-21 04:00N 40°41' W 074°05'0 0.0
2018-Feb-21 03:30N 40°41' W 074°05'0 0.0
2018-Feb-21 03:00N 40°41' W 074°05'0 0.0
2018-Feb-21 02:30N 40°41' W 074°05'0 0.0
2018-Feb-21 02:00N 40°41' W 074°05'0 0.0
2018-Feb-21 01:30N 40°41' W 074°05'0 0.0
2018-Feb-21 01:00N 40°41' W 074°05'0 0.0
2018-Feb-21 00:30N 40°41' W 074°05'0 0.0
2018-Feb-21 00:00N 40°41' W 074°05'0 0.0
2018-Feb-20 23:30N 40°41' W 074°05'0 0.0
2018-Feb-20 23:00N 40°41' W 074°05'0 0.0
2018-Feb-20 22:30N 40°41' W 074°05'0 0.0
2018-Feb-20 22:00N 40°41' W 074°05'0 0.0
2018-Feb-20 21:30N 40°41' W 074°05'0 0.0
2018-Feb-20 21:00N 40°41' W 074°05'0 0.0
2018-Feb-20 20:30N 40°41' W 074°05'0 0.0
2018-Feb-20 20:00N 40°41' W 074°05'0 0.0
2018-Feb-20 19:30N 40°41' W 074°05'0 0.0
2018-Feb-20 19:00N 40°41' W 074°05'0 0.0
2018-Feb-20 18:30N 40°41' W 074°05'0 0.0
2018-Feb-20 18:00N 40°41' W 074°05'0 0.0
2018-Feb-20 17:30N 40°41' W 074°05'0 0.0
2018-Feb-20 17:00N 40°41' W 074°05'0 0.0
2018-Feb-20 16:30N 40°41' W 074°05'0 0.0
2018-Feb-20 16:00N 40°41' W 074°05'0 0.0
2018-Feb-20 15:30N 40°41' W 074°05'0 0.0
2018-Feb-20 15:00N 40°41' W 074°05'0 0.0
2018-Feb-20 14:30N 40°41' W 074°05'0 0.0
2018-Feb-20 14:00N 40°41' W 074°05'0 0.0
2018-Feb-20 13:30N 40°41' W 074°05'0 0.0
2018-Feb-20 13:00N 40°41' W 074°05'0 0.0
2018-Feb-20 12:30N 40°41' W 074°05'0 0.0
2018-Feb-20 12:00N 40°41' W 074°05'0 0.0
2018-Feb-20 11:30N 40°41' W 074°05'0 0.0
2018-Feb-20 11:00N 40°41' W 074°05'0 0.0
2018-Feb-20 10:30N 40°41' W 074°05'0 0.0
2018-Feb-20 10:00N 40°41' W 074°05'0 0.0
2018-Feb-20 09:30N 40°41' W 074°05'0 0.0
2018-Feb-20 09:00N 40°41' W 074°05'0 0.0
2018-Feb-20 08:30N 40°41' W 074°05'0 0.0
2018-Feb-20 08:01N 40°41' W 074°05'0 0.0
2018-Feb-20 07:30N 40°41' W 074°05'0 0.0
2018-Feb-20 07:00N 40°41' W 074°05'0 0.0
2018-Feb-20 06:30N 40°41' W 074°05'0 0.0
2018-Feb-20 06:00N 40°41' W 074°05'0 0.0
2018-Feb-20 05:30N 40°41' W 074°05'0 0.0
2018-Feb-20 05:00N 40°41' W 074°05'0 0.0
2018-Feb-20 04:30N 40°41' W 074°05'0 0.0
2018-Feb-20 04:00N 40°41' W 074°05'0 0.0
2018-Feb-20 03:30N 40°41' W 074°05'0 0.0
2018-Feb-20 03:00N 40°41' W 074°05'0 0.0
2018-Feb-20 02:30N 40°41' W 074°05'0 0.0
2018-Feb-20 02:00N 40°41' W 074°05'0 0.0
2018-Feb-20 01:00N 40°41' W 074°05'0 0.0
2018-Feb-20 00:30N 40°41' W 074°05'0 0.0
2018-Feb-20 00:00N 40°41' W 074°05'0 0.0
2018-Feb-19 23:30N 40°41' W 074°05'0 0.1
2018-Feb-19 23:00N 40°41' W 074°05'0 0.0
2018-Feb-19 22:30N 40°41' W 074°05'0 0.0
2018-Feb-19 22:00N 40°41' W 074°05'0 0.0
2018-Feb-19 21:29N 40°41' W 074°05'0 0.0
2018-Feb-19 21:00N 40°41' W 074°05'0 0.0
2018-Feb-19 20:30N 40°41' W 074°05'0 0.0
2018-Feb-19 20:00N 40°41' W 074°05'0 0.0
2018-Feb-19 19:30N 40°41' W 074°05'0 0.0
2018-Feb-19 18:59N 40°41' W 074°05'0 0.0
2018-Feb-19 18:30N 40°41' W 074°05'0 0.0
2018-Feb-19 18:00N 40°41' W 074°05'0 0.0
2018-Feb-19 17:30N 40°41' W 074°05'0 0.0
2018-Feb-19 17:00N 40°41' W 074°05'0 0.0
2018-Feb-19 16:30N 40°41' W 074°05'1 2.4
2018-Feb-19 16:00N 40°39' W 074°04'2 4.7
2018-Feb-19 15:30N 40°39' W 074°07'0 0.0
2018-Feb-19 15:00N 40°39' W 074°07'0 0.1
2018-Feb-19 14:19N 40°39' W 074°07'0 0.0
2018-Feb-19 13:59N 40°39' W 074°07'0 0.0
2018-Feb-19 13:30N 40°39' W 074°07'0 0.0
2018-Feb-19 13:00N 40°39' W 074°07'0 0.0
2018-Feb-19 12:29N 40°39' W 074°07'0 0.0
2018-Feb-19 12:00N 40°39' W 074°07'0 0.0
2018-Feb-19 11:29N 40°39' W 074°07'0 0.0
2018-Feb-19 11:00N 40°39' W 074°07'0 0.0
2018-Feb-19 10:30N 40°39' W 074°07'0 0.0
2018-Feb-19 09:59N 40°39' W 074°07'0 0.0
2018-Feb-19 09:30N 40°39' W 074°07'0 0.0
2018-Feb-19 09:00N 40°39' W 074°07'0 0.0
2018-Feb-19 08:30N 40°39' W 074°07'0 0.0
2018-Feb-19 08:00N 40°39' W 074°07'0 0.0
2018-Feb-19 07:28N 40°39' W 074°07'0 0.0
2018-Feb-19 07:00N 40°39' W 074°07'0 0.0
2018-Feb-19 06:30N 40°39' W 074°07'0 0.0
2018-Feb-19 06:00N 40°39' W 074°07'0 0.0
2018-Feb-19 05:30N 40°39' W 074°07'0 0.0
2018-Feb-19 05:00N 40°39' W 074°07'0 0.0
2018-Feb-19 04:30N 40°39' W 074°07'0 0.0
2018-Feb-19 04:00N 40°39' W 074°07'0 0.0
2018-Feb-19 03:29N 40°39' W 074°07'0 0.0
2018-Feb-19 03:00N 40°39' W 074°07'0 0.0
2018-Feb-19 02:26N 40°39' W 074°07'0 0.0
2018-Feb-19 02:00N 40°39' W 074°07'0 0.0
2018-Feb-19 01:30N 40°39' W 074°07'0 0.0
2018-Feb-19 00:58N 40°39' W 074°07'0 0.0
2018-Feb-19 00:29N 40°39' W 074°07'0 0.0
2018-Feb-19 00:00N 40°39' W 074°07'0 0.0
2018-Feb-18 23:30N 40°39' W 074°07'0 0.0
2018-Feb-18 22:58N 40°39' W 074°07'0 0.0
2018-Feb-18 22:30N 40°39' W 074°07'0 0.0
2018-Feb-18 22:00N 40°39' W 074°07'0 0.0
2018-Feb-18 21:30N 40°39' W 074°07'0 0.0
2018-Feb-18 20:59N 40°39' W 074°07'0 0.0
2018-Feb-18 20:29N 40°39' W 074°07'0 0.0
2018-Feb-18 20:00N 40°39' W 074°07'0 0.0
2018-Feb-18 19:30N 40°39' W 074°07'0 0.0
2018-Feb-18 19:00N 40°39' W 074°07'0 0.0
2018-Feb-18 18:30N 40°39' W 074°07'0 0.0
2018-Feb-18 18:00N 40°39' W 074°07'0 0.0
2018-Feb-18 17:30N 40°39' W 074°07'0 0.0
2018-Feb-18 16:59N 40°39' W 074°07'0 0.0
2018-Feb-18 16:30N 40°39' W 074°07'0 0.0
2018-Feb-18 16:00N 40°39' W 074°07'0 0.0
2018-Feb-18 15:28N 40°39' W 074°07'0 0.0
2018-Feb-18 14:59N 40°39' W 074°07'0 0.0
2018-Feb-18 14:30N 40°39' W 074°07'0 0.0
2018-Feb-18 13:59N 40°39' W 074°07'0 0.0
2018-Feb-18 13:28N 40°39' W 074°07'0 0.0
2018-Feb-18 12:53N 40°39' W 074°07'0 0.0
2018-Feb-18 12:30N 40°39' W 074°07'0 0.0
2018-Feb-18 12:00N 40°39' W 074°07'0 0.0
2018-Feb-18 11:30N 40°39' W 074°07'0 0.0
2018-Feb-18 11:00N 40°39' W 074°07'0 0.0
2018-Feb-18 10:29N 40°39' W 074°07'0 0.0
2018-Feb-18 10:00N 40°39' W 074°07'0 0.0
2018-Feb-18 09:29N 40°39' W 074°07'0 0.0
2018-Feb-18 09:00N 40°39' W 074°07'0 0.0
2018-Feb-18 08:30N 40°39' W 074°07'0 0.0
2018-Feb-18 07:54N 40°39' W 074°07'0 0.0
2018-Feb-18 07:24N 40°39' W 074°07'0 0.0
2018-Feb-18 06:55N 40°39' W 074°07'0 0.0
2018-Feb-18 06:29N 40°39' W 074°07'0 0.0
2018-Feb-18 06:00N 40°39' W 074°07'0 0.0
2018-Feb-18 05:29N 40°39' W 074°07'0 0.0
2018-Feb-18 05:00N 40°39' W 074°07'0 0.0
2018-Feb-18 04:28N 40°39' W 074°07'0 0.0
2018-Feb-18 04:00N 40°39' W 074°07'0 0.0
2018-Feb-18 03:30N 40°39' W 074°07'0 0.0
2018-Feb-18 03:00N 40°39' W 074°07'0 0.0
2018-Feb-18 02:28N 40°39' W 074°07'0 0.0
2018-Feb-18 02:00N 40°39' W 074°07'0 0.0
2018-Feb-18 01:29N 40°39' W 074°07'0 0.0
2018-Feb-18 01:00N 40°39' W 074°07'0 0.0
2018-Feb-18 00:30N 40°39' W 074°07'0 0.0
2018-Feb-17 23:58N 40°39' W 074°07'0 0.0
2018-Feb-17 23:29N 40°39' W 074°07'0 0.0
2018-Feb-17 23:00N 40°39' W 074°07'0 0.0
2018-Feb-17 22:30N 40°39' W 074°07'0 0.0
2018-Feb-17 21:59N 40°39' W 074°07'0 0.0
2018-Feb-17 21:30N 40°39' W 074°07'0 0.0
2018-Feb-17 21:00N 40°39' W 074°07'0 0.0
2018-Feb-17 20:30N 40°39' W 074°07'0 0.0
2018-Feb-17 20:00N 40°39' W 074°07'0 0.0
2018-Feb-17 19:29N 40°39' W 074°07'0 0.0
2018-Feb-17 19:00N 40°39' W 074°07'0 0.0
2018-Feb-17 18:30N 40°39' W 074°07'0 0.0
2018-Feb-17 17:59N 40°39' W 074°07'0 0.0
2018-Feb-17 17:28N 40°39' W 074°07'0 0.0
2018-Feb-17 17:00N 40°39' W 074°07'0 0.0
2018-Feb-17 16:29N 40°39' W 074°07'0 0.0
2018-Feb-17 15:59N 40°39' W 074°07'0 0.0
2018-Feb-17 15:30N 40°39' W 074°07'0 0.0
2018-Feb-17 15:00N 40°39' W 074°07'0 0.0
2018-Feb-17 14:28N 40°39' W 074°07'0 0.0
2018-Feb-17 14:00N 40°39' W 074°07'0 0.0
2018-Feb-17 13:30N 40°39' W 074°07'0 0.0
2018-Feb-17 13:00N 40°39' W 074°07'0 0.0
2018-Feb-17 12:30N 40°39' W 074°07'0 0.0
2018-Feb-17 12:00N 40°39' W 074°07'0 0.0
2018-Feb-17 11:24N 40°39' W 074°07'0 0.0
2018-Feb-17 11:00N 40°39' W 074°07'0 0.0
2018-Feb-17 10:30N 40°39' W 074°07'0 0.0
2018-Feb-17 10:00N 40°39' W 074°07'0 0.0
2018-Feb-17 09:30N 40°39' W 074°07'0 0.0
2018-Feb-17 08:59N 40°39' W 074°07'0 0.0
2018-Feb-17 08:30N 40°39' W 074°07'0 0.0
2018-Feb-17 08:00N 40°39' W 074°07'0 0.0
2018-Feb-17 07:30N 40°39' W 074°07'0 0.0
2018-Feb-17 07:00N 40°39' W 074°07'0 0.0
2018-Feb-17 06:30N 40°39' W 074°07'0 0.0
2018-Feb-17 06:00N 40°39' W 074°07'0 0.0
2018-Feb-17 05:30N 40°39' W 074°07'0 0.0
2018-Feb-17 05:00N 40°39' W 074°07'0 0.0
2018-Feb-17 04:30N 40°39' W 074°07'0 0.0
2018-Feb-17 04:00N 40°39' W 074°07'0 0.0
2018-Feb-17 03:30N 40°39' W 074°07'0 0.0
2018-Feb-17 03:00N 40°39' W 074°07'0 0.0
2018-Feb-17 02:30N 40°39' W 074°07'0 0.0
2018-Feb-17 02:00N 40°39' W 074°07'0 0.0
2018-Feb-17 01:30N 40°39' W 074°07'0 0.0
2018-Feb-17 01:00N 40°39' W 074°07'0 0.0
2018-Feb-17 00:30N 40°39' W 074°07'0 0.0
2018-Feb-17 00:00N 40°39' W 074°07'0 0.0
2018-Feb-16 23:30N 40°39' W 074°07'0 0.0
2018-Feb-16 23:00N 40°39' W 074°07'0 0.0
2018-Feb-16 22:30N 40°39' W 074°07'0 0.0
2018-Feb-16 21:59N 40°39' W 074°07'0 0.0
2018-Feb-16 21:30N 40°39' W 074°07'0 0.0
2018-Feb-16 21:00N 40°39' W 074°07'0 0.0
2018-Feb-16 20:30N 40°39' W 074°07'0 0.0
2018-Feb-16 20:00N 40°39' W 074°07'0 0.0
2018-Feb-16 19:30N 40°39' W 074°07'0 0.0
2018-Feb-16 19:00N 40°39' W 074°07'0 0.0
2018-Feb-16 18:30N 40°39' W 074°07'0 0.0
2018-Feb-16 17:59N 40°39' W 074°07'0 0.0
2018-Feb-16 17:29N 40°39' W 074°07'0 0.0
2018-Feb-16 17:00N 40°39' W 074°07'0 0.0
2018-Feb-16 16:25N 40°39' W 074°07'0 0.0
2018-Feb-16 15:52N 40°39' W 074°07'0 0.0
2018-Feb-16 15:27N 40°39' W 074°07'0 0.0
2018-Feb-16 14:59N 40°39' W 074°07'0 0.0
2018-Feb-16 14:30N 40°39' W 074°07'0 0.0
2018-Feb-16 13:51N 40°39' W 074°07'0 0.0
2018-Feb-16 13:30N 40°39' W 074°07'0 0.0
2018-Feb-16 12:59N 40°39' W 074°07'0 0.0
2018-Feb-16 12:26N 40°39' W 074°07'0 0.0
2018-Feb-16 12:00N 40°39' W 074°07'0 0.0
2018-Feb-16 11:30N 40°39' W 074°07'0 0.0
2018-Feb-16 11:00N 40°39' W 074°07'0 0.0
2018-Feb-16 10:29N 40°39' W 074°07'0 0.0
2018-Feb-16 10:00N 40°39' W 074°07'0 0.0
2018-Feb-16 09:29N 40°39' W 074°07'0 0.0
2018-Feb-16 08:59N 40°39' W 074°07'0 0.0
2018-Feb-16 08:30N 40°39' W 074°07'0 0.0
2018-Feb-16 07:59N 40°39' W 074°07'0 0.0
2018-Feb-16 07:14N 40°39' W 074°07'0 0.0
2018-Feb-16 06:59N 40°39' W 074°07'0 0.0
2018-Feb-16 06:30N 40°39' W 074°07'0 0.0
2018-Feb-16 06:00N 40°39' W 074°07'0 0.0
2018-Feb-16 05:30N 40°39' W 074°07'0 0.0
2018-Feb-16 04:53N 40°39' W 074°07'0 0.0
2018-Feb-16 04:29N 40°39' W 074°07'0 0.0
2018-Feb-16 04:00N 40°39' W 074°07'0 0.0
2018-Feb-16 03:30N 40°39' W 074°07'0 0.0
2018-Feb-16 02:58N 40°39' W 074°07'0 0.0
2018-Feb-16 02:30N 40°39' W 074°07'0 0.0
2018-Feb-16 02:00N 40°39' W 074°07'0 0.0
2018-Feb-16 01:29N 40°39' W 074°07'0 0.0
2018-Feb-16 01:00N 40°39' W 074°07'0 0.0
2018-Feb-16 00:30N 40°39' W 074°07'0 0.0
2018-Feb-16 00:00N 40°39' W 074°07'0 0.0
2018-Feb-15 22:57N 40°39' W 074°07'0 0.0
2018-Feb-15 22:30N 40°39' W 074°07'0 0.0
2018-Feb-15 22:00N 40°39' W 074°07'0 0.0
2018-Feb-15 21:30N 40°39' W 074°07'0 0.0
2018-Feb-15 20:59N 40°39' W 074°07'0 0.0
2018-Feb-15 20:30N 40°39' W 074°07'0 0.0
2018-Feb-15 20:00N 40°39' W 074°07'0 0.0
2018-Feb-15 19:30N 40°39' W 074°07'0 0.0
2018-Feb-15 19:00N 40°39' W 074°07'0 0.0
2018-Feb-15 18:30N 40°39' W 074°07'0 0.0
2018-Feb-15 17:59N 40°39' W 074°07'0 0.0
2018-Feb-15 17:30N 40°39' W 074°07'0 0.0
2018-Feb-15 17:00N 40°39' W 074°07'0 0.0
2018-Feb-15 15:44N 40°39' W 074°07'0 0.0
2018-Feb-15 15:29N 40°39' W 074°07'0 0.0
2018-Feb-15 14:58N 40°39' W 074°07'0 0.0
2018-Feb-15 14:30N 40°39' W 074°07'0 0.0
2018-Feb-15 14:00N 40°39' W 074°07'0 0.0
2018-Feb-15 13:28N 40°39' W 074°07'0 0.0
2018-Feb-15 12:58N 40°39' W 074°07'0 0.0
2018-Feb-15 12:25N 40°39' W 074°07'0 0.0
2018-Feb-15 11:50N 40°39' W 074°07'0 0.0
2018-Feb-15 11:30N 40°39' W 074°07'0 0.0
2018-Feb-15 10:58N 40°39' W 074°07'0 0.0
2018-Feb-15 10:30N 40°39' W 074°07'0 0.0
2018-Feb-15 10:00N 40°39' W 074°07'  

Dump ship's entire track history